Temperature
27 27 26 26 26 26 26 26 27 27 27 26 26 26 26 25 24 24 24 23 23 23 21 20 19 18 17 17 16 15 15 14 14 13 13 13 13 13 13 13 13 13 13 13
27 27 27 27 26 25 26 27 28 28 27 26 26 26 27 26 25 24 24 23 23 22 21 20 19 18 17 17 16 15 15 14 14 13 13 13 13 13 13 13 13 13 13 13
27 28 29 28 27 27 27 27 27 26 27 27 26 25 26 26 25 24 23 23 22 22 21 20 19 18 17 16 16 15 15 14 14 13 13 13 13 13 13 13 13 13 13 13
27 27 28 28 28 27 27 27 26 26 25 25 26 24 25 25 25 24 24 23 22 21 20 19 19 18 17 16 15 15 14 14 13 13 13 12 12 12 12 12 12 13 13 13
26 27 28 28 28 27 27 26 26 26 25 25 26 25 25 25 25 24 24 23 22 21 20 19 18 17 17 16 15 14 14 13 13 13 12 12 12 12 12 12 12 12 13 13
27 28 28 28 27 27 27 26 26 26 25 24 26 26 25 25 24 24 24 23 22 21 20 19 18 17 17 16 15 14 14 13 13 13 13 12 12 12 12 12 12 12 12 12
26 27 27 27 26 26 26 25 25 24 24 25 26 25 25 24 25 24 24 23 22 21 20 19 18 17 17 16 15 14 14 13 13 13 13 12 12 12 12 12 12 12 12 12
26 26 26 27 27 26 26 26 24 24 25 25 25 25 24 25 24 23 23 22 22 21 20 19 18 17 17 16 15 15 14 14 13 13 13 12 12 12 12 12 12 11 11 12
26 26 27 27 27 26 26 26 26 25 25 25 26 26 24 24 24 24 23 22 22 21 20 19 18 17 17 16 16 15 14 14 14 13 13 13 12 12 12 11 11 11 11 11
27 25 25 25 26 25 26 26 25 24 24 24 25 26 24 23 24 24 24 23 22 21 20 19 18 18 17 16 16 15 15 14 14 13 13 13 12 12 12 12 11 11 11 11
27 26 25 25 25 26 25 25 25 25 25 24 23 23 25 24 24 24 23 23 22 21 20 19 19 18 17 16 16 16 15 15 14 14 13 13 12 12 12 12 11 11 11 11
27 27 26 25 26 26 26 26 25 24 24 25 24 23 25 24 24 24 23 23 22 21 20 19 19 18 17 17 16 16 16 15 14 14 13 13 13 12 12 12 12 11 11 11
27 26 26 25 24 24 24 25 25 25 24 24 24 23 25 25 24 24 23 22 22 21 20 19 19 18 17 17 16 16 16 15 15 14 13 13 13 12 12 12 12 11 11 11
25 26 26 25 25 25 24 25 24 24 23 24 25 25 25 25 24 24 23 22 22 21 20 20 19 18 18 17 17 16 16 15 15 14 14 13 13 13 12 12 11 11 11 11
26 25 26 27 26 26 26 25 24 24 24 24 25 25 25 24 24 23 23 22 22 21 21 20 19 19 18 18 17 17 16 16 15 15 14 14 13 13 12 12 11 11 11 11
25 25 26 26 26 26 25 25 25 24 24 25 24 24 25 25 24 23 23 22 22 21 21 20 20 19 19 18 18 17 17 16 16 15 15 14 13 13 12 12 12 11 11 11
26 25 25 25 26 25 24 25 25 25 25 25 24 24 25 24 24 23 22 22 21 21 20 20 20 19 19 19 18 18 17 16 16 15 15 14 14 13 13 12 12 12 11 11
26 26 25 25 25 23 26 28 27 26 26 26 25 25 24 24 23 22 22 21 21 20 20 20 19 19 19 19 18 18 17 17 16 16 15 14 14 13 13 13 12 12 12 11
26 25 25 25 25 25 26 27 26 25 25 26 25 25 24 24 23 22 21 20 20 20 19 19 19 19 19 18 18 18 17 17 17 16 15 15 14 14 13 13 13 12 12 12
25 25 24 24 24 24 26 27 27 26 24 26 25 25 24 24 23 21 20 20 19 19 19 18 18 18 18 18 18 17 17 17 17 16 16 15 15 14 14 13 13 13 12 12
23 23 23 23 24 26 26 26 26 23 24 26 25 24 24 23 21 20 20 19 19 18 18 18 18 18 17 17 17 17 17 16 16 16 16 15 15 14 14 14 13 13 13 12
24 24 23 23 23 24 25 25 25 25 25 25 24 24 23 22 20 20 19 18 18 18 18 17 17 17 17 17 17 16 16 16 16 15 15 15 15 14 14 14 14 13 13 13
26 26 25 25 24 24 25 24 24 24 24 24 23 22 21 21 20 19 18 18 17 17 17 17 17 16 16 16 16 16 16 15 15 15 15 14 14 14 14 14 14 14 13 13
27 28 26 26 24 23 23 22 22 22 23 22 21 21 20 20 19 18 17 17 17 16 16 16 16 16 15 15 15 15 15 15 15 14 14 14 14 14 15 14 14 14 14 13
26 27 26 25 25 23 22 22 21 21 21 20 20 20 19 19 18 17 17 16 15 15 15 15 15 15 14 14 14 14 14 14 14 13 13 14 14 14 14 14 14 14 14 14
27 26 25 25 26 25 23 22 21 20 20 19 19 18 18 18 17 16 16 15 14 14 14 14 14 13 13 13 13 13 13 13 12 12 12 13 13 13 13 13 13 14 13 14
Wind_Speed
14 13 12 7 5 6 7 9 9 1 6 2 8 8 4 9 7 5 6 5 4 1 4 7 4 3 4 5 6 6 5 5 4 4 4 5 5 5 5 4 5 6 7 7
13 15 9 5 3 4 11 11 9 3 5 2 8 9 5 6 5 3 3 5 4 3 3 5 5 4 4 5 5 5 5 5 4 3 3 4 5 5 4 4 4 6 7 7
15 9 8 8 8 9 10 6 6 8 7 7 8 9 7 8 5 4 3 3 4 3 4 5 6 5 4 5 6 6 5 5 6 6 3 5 5 4 5 5 5 5 6 5
8 4 6 8 7 4 6 6 5 7 8 7 4 4 7 9 7 6 5 2 0 2 2 3 3 4 4 5 6 6 7 7 7 7 5 6 5 5 6 5 5 7 6 6
7 9 8 8 1 1 4 4 5 7 8 10 8 6 5 8 5 5 5 2 2 3 3 3 3 3 4 5 5 4 5 6 6 6 5 5 5 5 5 5 6 7 6 6
5 5 3 3 7 3 1 5 8 7 7 9 6 4 4 4 5 5 4 4 3 4 3 3 2 3 3 3 3 3 3 3 3 4 5 5 5 6 7 6 6 6 5 5
7 7 4 4 4 4 5 7 5 7 7 3 7 2 5 10 8 5 4 4 3 4 2 2 2 2 2 2 1 2 3 3 3 4 5 5 5 5 6 6 6 6 5 5
11 11 9 5 4 3 4 7 6 5 3 3 5 3 8 9 7 4 2 2 2 2 3 2 2 2 1 0 0 1 2 3 2 3 5 4 5 4 4 5 6 6 5 5
5 5 8 5 1 3 5 5 2 5 8 4 5 7 8 7 6 5 2 2 2 2 3 3 2 1 0 0 1 1 2 3 3 4 4 4 4 5 5 6 6 5 5 6
4 6 7 5 4 4 5 7 3 4 5 4 3 5 6 6 4 2 1 1 2 2 2 3 3 2 1 0 0 1 2 3 2 3 4 4 4 4 5 5 6 6 6 6
5 4 9 8 7 8 7 6 4 5 5 4 3 4 6 6 4 2 3 2 2 2 1 2 3 2 2 1 2 3 2 1 1 2 4 4 4 4 5 5 5 6 6 6
4 6 6 10 6 2 3 5 4 4 4 2 3 3 5 6 3 1 2 2 2 3 2 2 2 1 1 1 2 2 2 1 1 2 3 5 5 4 5 6 6 7 7 7
2 5 4 7 5 5 5 7 5 4 4 4 3 4 5 5 4 3 3 1 1 3 4 3 3 2 1 1 2 3 2 0 1 0 2 4 4 4 5 5 6 7 7 7
4 8 11 5 4 5 7 8 7 6 5 5 2 3 4 4 5 5 3 1 1 1 3 3 3 3 4 3 3 3 1 1 1 1 2 3 4 4 4 5 5 6 6 7
4 10 13 5 1 2 3 7 10 10 10 7 5 5 5 6 5 3 2 1 1 0 1 3 4 4 3 4 5 4 3 2 2 1 2 1 2 3 4 5 5 5 6 7
6 9 11 6 4 5 8 9 10 11 10 9 7 4 4 5 3 2 2 2 1 0 0 0 2 3 3 3 3 2 1 1 1 1 1 1 1 2 3 5 5 5 6 6
8 9 10 9 8 7 9 15 14 11 9 7 6 0 5 3 3 3 4 3 2 1 1 1 2 1 1 2 0 1 0 0 2 2 1 1 1 2 3 4 5 6 6 5
9 10 7 8 6 8 2 3 10 11 10 7 4 1 2 2 2 2 2 3 3 3 2 1 1 1 2 2 1 2 3 4 3 1 1 2 2 3 3 4 5 5 5 5
7 7 6 7 9 8 5 6 7 8 8 8 6 4 3 2 4 4 5 4 4 4 3 2 2 3 3 3 3 3 3 2 2 2 3 3 3 3 3 4 5 5 4 5
7 8 7 6 7 7 3 11 9 5 6 9 8 6 4 4 2 5 6 5 4 4 4 3 2 3 4 4 3 3 4 4 3 2 2 2 2 3 4 5 5 5 5 6
8 7 9 9 8 4 8 12 10 5 2 10 9 7 4 2 6 6 6 6 5 4 3 3 2 3 4 5 4 4 5 6 6 4 4 4 4 5 6 5 5 5 5 6
10 7 9 8 8 5 10 9 6 3 7 8 7 6 6 7 7 6 6 6 5 4 4 3 3 3 3 4 4 5 5 5 5 4 4 5 6 7 6 5 6 6 6 6
9 8 4 5 2 6 6 4 4 4 5 6 7 6 7 7 6 6 6 5 5 5 4 3 3 4 4 4 4 5 6 7 6 5 6 6 7 7 6 6 7 6 5 5
8 9 6 4 6 9 7 6 5 3 4 7 7 6 6 7 7 7 6 5 5 5 5 4 4 4 5 6 6 6 7 7 8 7 7 6 6 6 5 4 4 4 4 4
5 4 7 9 5 7 8 9 9 7 7 8 7 6 6 7 7 7 6 6 5 5 5 5 5 6 6 7 7 8 9 9 8 8 8 7 6 5 5 5 4 5 5 5
10 7 8 7 7 9 10 13 12 11 10 10 10 8 7 7 7 8 7 6 6 6 6 6 7 7 7 8 9 10 10 10 10 8 8 7 7 6 5 6 6 8 8 10
Wind_Direction
201 215 222 221 239 273 285 274 277 103 118 300 292 286 231 166 178 217 242 246 253 93 87 100 86 62 30 27 24 3 10 13 16 15 342 336 329 327 320 319 338 329 318 313
200 220 210 160 165 256 265 276 299 32 102 313 291 285 260 157 170 201 289 311 322 45 50 85 80 59 38 38 28 359 16 11 22 11 341 332 328 318 318 331 329 335 327 319
214 214 192 189 215 237 262 287 341 342 326 281 271 266 211 144 153 169 210 276 315 12 25 30 37 31 31 44 29 2 17 13 22 5 6 349 329 324 347 344 339 331 320 319
206 186 208 225 233 259 303 49 356 312 296 285 240 292 156 146 166 174 175 195 197 68 65 58 50 35 19 44 37 5 15 17 18 5 5 344 337 346 337 339 332 334 332 337
186 187 212 233 121 14 16 19 304 284 279 280 249 255 140 145 154 138 125 120 96 93 86 61 61 55 28 49 42 8 11 15 11 353 341 331 345 337 325 330 335 339 332 331
151 177 207 106 86 53 345 267 253 246 256 258 222 239 126 121 89 80 103 119 120 114 116 125 108 97 65 62 49 359 3 10 354 335 330 338 337 333 328 339 340 333 326 331
169 168 123 120 158 181 236 260 257 221 218 210 111 179 83 89 75 60 49 60 80 106 123 120 111 87 65 50 45 344 358 350 353 336 331 336 339 335 337 346 334 331 333 333
195 182 171 188 242 277 237 269 286 302 296 112 154 166 101 99 98 95 107 108 112 151 136 112 106 115 154 223 72 357 340 324 336 325 327 333 343 344 337 333 325 330 329 321
248 140 132 141 162 290 271 243 315 319 294 284 167 125 125 133 143 141 150 155 188 159 141 155 145 123 321 247 95 0 328 326 333 330 326 337 350 345 334 326 330 330 324 325
288 133 160 155 197 214 287 328 293 253 299 287 163 149 130 128 98 82 100 135 114 123 158 150 145 160 201 283 197 234 267 283 320 336 332 342 345 332 322 319 326 322 320 321
279 195 165 173 208 211 191 213 242 279 288 304 347 74 79 87 66 18 351 57 114 118 127 131 144 153 164 232 240 233 239 253 13 355 341 333 324 315 316 322 327 322 321 322
272 297 201 177 156 113 254 264 251 262 290 240 283 103 106 111 120 102 10 20 98 125 130 150 147 147 215 250 292 303 319 20 59 33 343 322 309 326 340 341 340 338 336 333
305 271 247 154 165 175 213 225 250 282 294 271 268 126 164 140 121 92 72 33 82 147 160 175 162 186 221 247 262 269 275 249 144 150 302 307 327 350 344 338 345 337 334 336
338 268 273 300 30 147 195 197 209 232 250 265 238 110 140 83 69 60 63 46 50 130 163 175 169 205 208 209 233 244 245 212 217 204 253 305 330 340 341 341 332 323 332 332
243 263 270 261 112 297 227 200 201 224 250 281 352 11 13 56 61 43 55 101 84 225 200 188 186 212 219 216 218 217 199 204 219 229 239 289 335 338 337 326 317 322 328 327
236 267 273 256 218 237 249 231 214 220 242 265 292 297 77 79 76 37 38 74 54 2 332 289 235 207 227 245 228 183 191 207 188 251 255 172 282 304 308 307 315 324 316 312
219 246 268 261 213 219 247 226 214 214 219 231 247 140 75 53 42 32 29 36 31 38 58 357 312 320 269 278 285 122 150 97 254 255 253 207 261 292 296 311 320 313 310 316
230 237 254 263 215 230 271 103 185 204 216 215 225 95 87 76 94 103 70 38 27 46 50 33 321 311 267 262 207 189 199 220 234 237 277 251 233 254 276 288 292 292 300 310
267 261 255 258 257 249 187 166 172 191 213 202 200 178 166 177 184 148 106 77 53 42 41 36 359 334 326 358 7 339 315 294 255 221 240 255 240 248 266 279 284 285 289 292
246 274 259 260 260 271 210 148 149 185 230 180 174 168 174 230 217 107 88 82 70 59 41 24 12 351 358 7 14 341 319 314 316 308 283 285 274 257 259 267 277 281 280 277
198 228 240 257 264 264 105 123 139 193 224 149 155 155 166 87 81 98 88 78 68 70 56 27 8 16 9 2 358 334 335 345 352 356 337 312 289 268 256 250 257 270 278 282
190 206 214 222 239 232 140 154 177 134 112 124 131 129 113 94 97 98 93 86 73 66 55 30 13 21 20 9 357 343 344 340 334 323 302 287 277 272 271 252 247 252 264 275
208 223 219 211 178 104 146 133 95 106 138 125 122 117 123 124 118 106 97 91 80 66 60 44 29 20 14 15 21 359 345 337 323 304 288 279 276 268 256 250 249 249 251 258
226 217 241 248 164 171 173 148 150 160 129 115 122 132 140 137 125 115 106 96 85 70 60 50 43 32 20 18 24 12 350 338 327 312 299 292 289 286 284 271 257 253 254 258
265 206 220 243 218 157 184 189 175 165 151 143 139 137 134 130 125 119 107 90 79 71 64 56 43 27 20 18 20 13 358 346 335 326 326 321 315 311 304 295 278 271 259 247
267 249 224 228 223 207 196 187 176 171 170 160 149 138 130 129 125 116 103 91 81 71 65 62 52 35 27 25 22 13 360 351 344 341 343 340 333 326 317 308 304 281 271 266
Height
1502 1504 1506 1506 1507 1510 1511 1513 1512 1508 1510 1514 1516 1514 1512 1516 1521 1524 1525 1526 1527 1528 1530 1531 1531 1532 1532 1531 1529 1527 1525 1523 1520 1518 1515 1513 1511 1510 1508 1507 1506 1504 1502 1502
1501 1502 1500 1502 1505 1509 1511 1511 1508 1505 1508 1513 1514 1512 1508 1512 1518 1521 1524 1525 1526 1527 1529 1530 1530 1531 1530 1529 1528 1526 1524 1522 1519 1517 1515 1513 1511 1509 1508 1506 1504 1502 1501 1499
1499 1497 1495 1499 1503 1506 1506 1507 1510 1513 1510 1509 1514 1514 1508 1510 1516 1520 1523 1524 1525 1526 1528 1529 1530 1530 1529 1528 1526 1525 1523 1522 1519 1517 1514 1512 1510 1508 1507 1505 1503 1501 1499 1498
1495 1496 1496 1499 1500 1504 1509 1507 1510 1513 1518 1516 1512 1525 1511 1509 1513 1516 1520 1522 1524 1525 1527 1528 1529 1529 1528 1527 1525 1524 1523 1521 1518 1516 1513 1511 1509 1507 1506 1504 1501 1499 1498 1496
1497 1495 1497 1500 1500 1504 1508 1508 1510 1512 1516 1518 1511 1518 1513 1508 1513 1514 1518 1520 1523 1524 1526 1527 1527 1527 1527 1526 1524 1523 1521 1519 1517 1515 1513 1511 1509 1507 1505 1503 1500 1498 1496 1495
1493 1493 1495 1498 1502 1506 1507 1510 1510 1511 1515 1524 1508 1515 1517 1511 1513 1514 1516 1519 1521 1523 1524 1525 1526 1526 1525 1524 1523 1522 1520 1518 1516 1514 1512 1510 1508 1506 1504 1502 1499 1497 1495 1493
1500 1497 1499 1501 1505 1508 1509 1515 1524 1526 1528 1518 1504 1513 1515 1511 1511 1514 1517 1519 1520 1522 1523 1524 1524 1524 1524 1523 1522 1521 1519 1518 1516 1514 1512 1510 1508 1505 1503 1501 1498 1496 1494 1492
1502 1506 1500 1501 1503 1506 1506 1511 1526 1532 1522 1514 1508 1513 1514 1508 1512 1515 1517 1518 1520 1521 1522 1522 1523 1523 1523 1522 1521 1520 1518 1517 1515 1513 1511 1509 1507 1505 1502 1500 1498 1495 1493 1491
1496 1502 1497 1500 1502 1505 1508 1508 1506 1518 1513 1516 1507 1507 1511 1508 1510 1513 1515 1517 1518 1519 1520 1521 1521 1522 1521 1521 1520 1519 1518 1516 1514 1512 1510 1508 1506 1503 1501 1499 1497 1494 1492 1490
1490 1506 1503 1504 1505 1507 1507 1507 1510 1518 1523 1524 1512 1509 1512 1511 1510 1511 1513 1514 1516 1517 1518 1519 1520 1520 1520 1520 1519 1517 1516 1515 1513 1511 1510 1508 1505 1503 1500 1498 1495 1493 1491 1488
1486 1498 1504 1505 1507 1504 1509 1511 1512 1513 1514 1526 1528 1523 1506 1508 1510 1511 1512 1513 1514 1516 1517 1518 1518 1518 1518 1518 1517 1516 1515 1514 1512 1510 1508 1506 1504 1502 1499 1497 1495 1492 1490 1487
1488 1493 1499 1500 1496 1499 1502 1504 1508 1520 1515 1513 1522 1524 1504 1506 1508 1509 1511 1512 1513 1514 1515 1516 1517 1517 1517 1517 1516 1516 1515 1513 1511 1509 1507 1505 1503 1501 1499 1496 1494 1491 1489 1486
1489 1497 1503 1508 1509 1505 1505 1505 1506 1510 1514 1515 1520 1520 1503 1504 1505 1507 1509 1511 1512 1512 1513 1515 1515 1516 1516 1515 1515 1514 1513 1512 1510 1508 1506 1504 1503 1500 1498 1495 1493 1490 1488 1485
1494 1496 1501 1507 1503 1500 1504 1504 1506 1511 1517 1512 1508 1507 1502 1502 1504 1507 1508 1509 1510 1511 1512 1513 1513 1514 1514 1514 1513 1513 1512 1511 1509 1507 1505 1503 1502 1499 1497 1494 1492 1489 1487 1484
1495 1498 1491 1488 1491 1493 1496 1500 1504 1508 1508 1509 1505 1504 1502 1502 1504 1506 1507 1508 1509 1510 1511 1511 1512 1512 1512 1512 1511 1511 1510 1509 1508 1506 1505 1503 1501 1499 1496 1493 1491 1488 1486 1483
1494 1495 1491 1491 1490 1493 1497 1496 1498 1502 1502 1503 1503 1503 1498 1501 1504 1505 1506 1507 1508 1508 1509 1510 1510 1510 1511 1511 1510 1510 1509 1508 1507 1505 1504 1502 1499 1497 1495 1493 1490 1487 1485 1482
1491 1494 1496 1495 1488 1494 1500 1490 1491 1495 1495 1498 1503 1501 1498 1501 1503 1504 1505 1506 1507 1507 1508 1508 1509 1509 1509 1509 1509 1508 1507 1507 1505 1504 1503 1501 1498 1496 1494 1491 1489 1486 1484 1481
1487 1490 1492 1494 1494 1510 1487 1472 1478 1486 1489 1490 1493 1495 1498 1500 1502 1504 1505 1505 1506 1506 1507 1507 1507 1508 1508 1507 1507 1506 1506 1505 1504 1502 1501 1499 1497 1495 1492 1490 1487 1485 1483 1480
1484 1487 1492 1494 1496 1490 1482 1476 1478 1485 1488 1487 1490 1493 1496 1498 1500 1502 1504 1504 1505 1505 1506 1506 1506 1506 1506 1506 1506 1505 1505 1504 1502 1500 1499 1497 1495 1493 1491 1488 1486 1484 1481 1479
1486 1486 1492 1492 1499 1499 1476 1471 1476 1483 1490 1483 1487 1491 1494 1496 1498 1503 1503 1503 1504 1504 1504 1505 1505 1505 1505 1504 1504 1503 1503 1502 1500 1498 1497 1495 1493 1491 1489 1487 1484 1482 1480 1477
1491 1492 1495 1497 1496 1482 1474 1473 1478 1495 1488 1480 1485 1489 1493 1495 1498 1501 1502 1502 1502 1503 1503 1503 1504 1504 1503 1503 1502 1501 1501 1499 1498 1496 1494 1492 1490 1489 1486 1484 1482 1480 1478 1476
1483 1487 1489 1490 1496 1488 1475 1476 1480 1481 1480 1481 1485 1488 1492 1494 1497 1499 1500 1501 1501 1501 1502 1502 1502 1502 1501 1501 1500 1499 1498 1496 1495 1493 1491 1489 1487 1485 1484 1482 1480 1478 1476 1473
1468 1470 1471 1474 1478 1473 1473 1474 1477 1478 1480 1483 1485 1488 1491 1493 1496 1497 1499 1499 1500 1500 1500 1500 1500 1500 1500 1499 1498 1497 1495 1494 1492 1490 1487 1485 1484 1482 1480 1478 1476 1475 1473 1471
1459 1460 1463 1466 1468 1470 1472 1474 1476 1478 1480 1482 1484 1487 1489 1492 1494 1496 1497 1498 1498 1499 1499 1499 1499 1498 1498 1497 1495 1494 1492 1490 1488 1486 1484 1482 1480 1479 1477 1475 1473 1472 1470 1468
1456 1457 1460 1464 1464 1467 1470 1471 1473 1476 1478 1480 1483 1485 1487 1489 1492 1493 1495 1496 1497 1497 1497 1497 1497 1496 1496 1495 1493 1491 1489 1487 1485 1483 1481 1479 1477 1475 1473 1471 1470 1468 1467 1466
1455 1455 1460 1461 1459 1461 1463 1465 1469 1472 1475 1477 1480 1483 1485 1487 1489 1491 1492 1494 1495 1495 1495 1495 1495 1494 1493 1492 1490 1488 1487 1485 1483 1480 1478 1476 1474 1472 1470 1468 1466 1464 1463 1461